Regional Weather Roundup
Issued by NWS

Home | Current Version | Previous Version | Graphics & Text | Print | Product List | Glossary On
Versions: 1 2 3 4 5 6 7 8 9 10 11 12 13 14 15 16 17 18 19 20 21 22 23 24 25 26 27 28 29 30 31 32 33 34 35 36 37 38 39 40 41 42 43 44 45 46 47 48 49 50
000
ASUS45 KBOU 022007
RWRCO

WEATHER ROUNDUP FOR COLORADO
NATIONAL WEATHER SERVICE DENVER/BOULDER CO
200 PM MDT SAT MAY 02 2015

NOTE: "FAIR" INDICATES FEW OR NO CLOUDS BELOW 12000 FEET WITH NO
SIGNIFICANT WEATHER AND/OR OBSTRUCTIONS TO VISIBILITY.

COZ001>005-013-030-031-022100-
...NORTHWEST COLORADO...

CITY           SKY/WX    TMP DP  RH WIND       PRES   REMARKS
CRAIG          MOSUNNY   73  33  23 W15G23    29.98F
HAYDEN         MOSUNNY   70  34  26 W16G25    30.00F
MEEKER         PTSUNNY   68  28  22 S16G24    30.02S
MOUNT WERNER   NOT AVBL
STEAMBOAT SPGS MOSUNNY   68  32  27 W12G22    30.02F
WALDEN         MOSUNNY   63  27  25 W15       30.09F
$$

COZ006>008-011-022100-
...WEST CENTRAL VALLEYS...

CITY           SKY/WX    TMP DP  RH WIND       PRES   REMARKS
GRAND JUNCTION MOSUNNY   74  37  26 CALM      29.93F
MONTROSE       MOSUNNY   77  21  12 NW13G28   30.00F
EAGLE          PTSUNNY   66  27  22 W18G30    30.06R
RIFLE          PTSUNNY   81  27  14 SW22G31   29.95F
DELTA          MOSUNNY   82  25  12 S5        29.95F
NUCLA          MOSUNNY   75  23  14 W3G12     30.05F
$$

COZ017>023-064>068-022100-
...SOUTHWEST COLORADO...

CITY           SKY/WX    TMP DP  RH WIND       PRES   REMARKS
DURANGO        PTSUNNY   73  22  14 W7        30.06F
CORTEZ         SUNNY     78  20  11 NW12      30.03F
PAGOSA SPRINGS PTSUNNY   68  24  19 N10G18    30.14F
TELLURIDE      CLOUDY    54  30  40 E13G21    30.24S
WOLF CREEK PAS NOT AVBL
$$

COZ009-010-012-014-032>034-037-058>063-022100-
...CENTRAL COLORADO...

CITY           SKY/WX    TMP DP  RH WIND       PRES   REMARKS
ASPEN          CLOUDY    57  27  31 SW15G24   30.14F
BUENA VISTA    NOT AVBL
COPPER MTN     CLOUDY    41  21  45 S18G26    30.37R
BERTHOUD PASS  PTSUNNY   36  30  80 MISG      30.34F
COTTONWOOD PAS CLOUDY    54  21  28 N8G17     30.22F
GUNNISON       CLOUDY    59  27  29 S18G26    30.16S
KREMMLING      PTSUNNY   59  34  38 E6        30.09F
LEADVILLE      CLOUDY    45  30  55 N10G25    30.28R
MONARCH PASS   CLOUDY    41  19  42 W35G41    30.44S
SALIDA         CLOUDY    66  27  22 SE21G31   30.14F
SUNLIGHT       CLOUDY    50  28  43 CALM      30.30F
WILKERSON PASS PTSUNNY   50  19  29 SW5       30.31F
$$

COZ069>075-022100-
...SAN LUIS VALLEY/SANGRE DE CRISTO MOUNTAINS...

CITY           SKY/WX    TMP DP  RH WIND       PRES   REMARKS
ALAMOSA        LGT RAIN  64  26  23 VRB7G26   30.10F
LA VETA PASS   CLOUDY    55  23  28 MISG      30.25F THUNDER
SAGUACHE       CLOUDY    57  30  35 NE3G12    30.17S THUNDER
$$

COZ035-036-038>040-022100-
...NORTHERN COLORADO FRONT RANGE...

CITY           SKY/WX    TMP DP  RH WIND       PRES   REMARKS
DENVER INTL AP CLOUDY    74  33  22 VRB7      29.94F
DMNS CITY PARK   N/A     75  31  19 W2        29.92F
AURORA         PTSUNNY   72  36  26 E8        29.96F
FRONT RANGE AP PTSUNNY   75  36  23 S7        29.96F
ERIE MUNI ARPT CLOUDY    76  34  21 SE7       29.92F
BOULDER MUN AP CLOUDY    73  34  23 E5        29.93S
CENTENNIAL     CLOUDY    71  35  26 E7        29.97F
BROOMFIELD     PTSUNNY   73  34  23 NE6       29.97
FORT COLLINS   PTSUNNY   72  45  37 SE5       29.92F
LONGMONT       PTSUNNY   76  40  27 CALM      29.93F
$$

COZ041-046-047-076>085-087-088-022100-
...PIKES PEAK/PALMER DIVIDE AND SOUTHERN FOOTHILLS...

CITY           SKY/WX    TMP DP  RH WIND       PRES   REMARKS
COLO. SPRINGS  PTSUNNY   74  30  19 S18       29.98F
A. F. ACADEMY  PTSUNNY   72  28  19 NW14G22   29.99F
ELLICOTT       PTSUNNY  N/A N/A N/A SW13      29.98F
FALCON         PTSUNNY   71  28  20 S13       30.03F
FORT CARSON    NOT AVBL
LIMON          MOSUNNY   77  30  17 VRB5      29.95F
MONUMENT HILL  PTSUNNY   59  32  36 N16G32    30.06R THUNDER
TRINIDAD       CLOUDY    72  31  22 N23G39    30.00F
$$

COZ042>045-048>051-090-091-022100-
...NORTHEAST COLORADO...

CITY           SKY/WX    TMP DP  RH WIND       PRES   REMARKS
GREELEY ARPT   PTSUNNY   79  39  24 CALM      29.91F
AKRON          MOSUNNY   77  35  21 W10       29.91F
BURLINGTON     MOSUNNY   80  38  22 VRB5      29.90F
WRAY           SUNNY     84  40  21 W6        29.86F
STERLING       MOSUNNY   79  37  22 NW5       29.86F
HOLYOKE        NOT AVBL
FORT MORGAN    MOSUNNY  N/A N/A N/A W5        29.91F
$$

COZ086-089-092>099-022100-
...SOUTHEAST COLORADO...

CITY           SKY/WX    TMP DP  RH WIND       PRES   REMARKS
PUEBLO         MOSUNNY   80  29  15 SW3       29.89F
LA JUNTA       MOSUNNY   85  32  15 VRB6      29.88F
LAMAR          MOSUNNY   82  53  36 NE7       29.86F
SPRINGFIELD      N/A     81  43  26 SE8       29.90F
$$



USA.gov is the U.S. government's official web portal to all federal, state and local government web resources and services.